This is the latest recevied weather packets stored in our database for station/object K8RRT. If no packets are shown the sender has not sent any weather packets the latest 10 day(s).
| Time | Temp. | Humidity | Pressure | Rain* | Wind** | Luminosity | Snow |
|---|---|---|---|---|---|---|---|
| 1777812638 | 5° C | 90% | 1016.8 hPa | 0 mm | - | 269 W/m² | - |
| 1777812334 | 4.44° C | 94% | 1016.9 hPa | 0 mm | - | 252 W/m² | - |
| 1777812033 | 3.89° C | 96% | 1017.1 hPa | 0 mm | - | 264 W/m² | - |
| 1777811731 | 3.33° C | 97% | 1016.8 hPa | 0 mm | - | 253 W/m² | - |
| 1777811427 | 3.33° C | 98% | 1016.7 hPa | 0 mm | - | 234 W/m² | - |
| 1777811124 | 2.78° C | 98% | 1016.7 hPa | 0 mm | - | 209 W/m² | - |
| 1777810821 | 2.78° C | 99% | 1016.8 hPa | 0 mm | - | 173 W/m² | - |
| 1777810518 | 2.22° C | 99% | 1016.6 hPa | 0 mm | - | 179 W/m² | - |
| 1777810215 | 2.22° C | 99% | 1016.6 hPa | 0 mm | - | 165 W/m² | - |
| 1777809910 | 1.67° C | 99% | 1016.5 hPa | 0 mm | - | 144 W/m² | - |
| 1777809609 | 1.11° C | 99% | 1016.5 hPa | 0 mm | - | 127 W/m² | - |
| 1777809306 | 1.11° C | 99% | 1016.4 hPa | 0 mm | - | 115 W/m² | - |
| 1777809004 | 1.11° C | 99% | 1016.3 hPa | 0 mm | - | 99 W/m² | - |
| 1777808701 | 1.11° C | 99% | 1016.3 hPa | 0 mm | - | 77 W/m² | - |
| 1777808397 | 1.67° C | 99% | 1016.3 hPa | 0 mm | - | 53 W/m² | - |
| 1777808095 | 1.11° C | 99% | 1016.3 hPa | 0 mm | - | 48 W/m² | - |
| 1777807793 | 1.67° C | 99% | 1016.3 hPa | 0 mm | - | 44 W/m² | - |
| 1777807491 | 0.56° C | 99% | 1015.9 hPa | 0 mm | - | 41 W/m² | - |
| 1777807186 | 0° C | 99% | 1016.1 hPa | 0 mm | - | 52 W/m² | - |
| 1777806884 | 0° C | 99% | 1015.9 hPa | 0 mm | - | 49 W/m² | - |
| 1777806580 | -0.56° C | 99% | 1016.1 hPa | 0 mm | - | 33 W/m² | - |
| 1777806276 | -1.11° C | 99% | 1015.9 hPa | 0 mm | - | 23 W/m² | - |
| 1777805973 | -1.11° C | 99% | 1015.9 hPa | 0 mm | - | 17 W/m² | - |
| 1777805670 | -1.67° C | 99% | 1015.9 hPa | 0 mm | - | 13 W/m² | - |
| 1777805367 | -1.67° C | 99% | 1015.7 hPa | 0 mm | - | 10 W/m² | - |
* Rain latest hour (hover to see other rain measurements)
** Current wind speed in m/s (hover to see current wind gust speed)